This is the latest recevied weather packets stored in our database for station/object OE5RBO. If no packets are shown the sender has not sent any weather packets the latest 10 day(s).
| Time | Temp. | Humidity | Pressure | Rain* | Wind** | Luminosity | Snow |
|---|---|---|---|---|---|---|---|
| 1777607097 | 1.67° C | 86% | 1026.3 hPa | 0 mm | - | - | - |
| 1777606496 | 2.22° C | 84% | 1026.3 hPa | 0 mm | - | - | - |
| 1777605896 | 2.22° C | 83% | 1026.3 hPa | 0 mm | - | - | - |
| 1777605295 | 2.22° C | 85% | 1026.3 hPa | 0 mm | - | - | - |
| 1777604094 | 1.67° C | 88% | 1026.4 hPa | 0 mm | - | - | - |
| 1777603495 | 2.78° C | 83% | 1026.4 hPa | 0 mm | - | - | - |
| 1777602893 | 3.33° C | 79% | 1026.2 hPa | 0 mm | - | - | - |
| 1777602294 | 3.33° C | 80% | 1026.3 hPa | 0 mm | - | - | - |
| 1777601693 | 3.33° C | 81% | 1026.3 hPa | 0 mm | - | - | - |
| 1777601092 | 3.33° C | 80% | 1026.2 hPa | 0 mm | - | - | - |
| 1777600493 | 3.89° C | 79% | 1026.3 hPa | 0 mm | - | - | - |
| 1777599892 | 3.33° C | 80% | 1026.2 hPa | 0 mm | - | - | - |
| 1777599291 | 2.78° C | 83% | 1026.3 hPa | 0 mm | - | - | - |
| 1777598692 | 2.78° C | 83% | 1026.3 hPa | 0 mm | - | - | - |
| 1777598092 | 2.78° C | 80% | 1026.4 hPa | 0 mm | - | - | - |
| 1777597490 | 3.33° C | 79% | 1026.4 hPa | 0 mm | - | - | - |
| 1777596891 | 3.33° C | 76% | 1026.5 hPa | 0 mm | - | - | - |
| 1777596290 | 3.89° C | 75% | 1026.5 hPa | 0 mm | - | - | - |
| 1777595690 | 3.89° C | 76% | 1026.5 hPa | 0 mm | - | - | - |
| 1777595089 | 3.89° C | 77% | 1026.5 hPa | 0 mm | - | - | - |
| 1777594489 | 3.89° C | 77% | 1026.5 hPa | 0 mm | - | - | - |
| 1777593888 | 4.44° C | 76% | 1026.4 hPa | 0 mm | - | - | - |
| 1777593289 | 3.89° C | 79% | 1026.1 hPa | 0 mm | - | - | - |
| 1777592688 | 3.33° C | 81% | 1026.4 hPa | 0 mm | - | - | - |
| 1777592087 | 2.78° C | 82% | 1026.4 hPa | 0 mm | - | - | - |
* Rain since midnight (hover to see other rain measurements)
** Current wind speed in m/s (hover to see current wind gust speed)